User: anonymous   Login
Location: Melbourne
(37.8170°S, 144.9670°E)
Time: 14:59:54
(UTC+10:00)
Language:

CZ-3 R/B - Orbit

View from above orbital plane
View from above orbital plane
View from above satellite
View from above satellite

Ground track
Ground track

The orbit data is extracted from the following two-line orbital elements,

1 29517U 06048B   16272.21158618  .00029384  00000-0  71210-3 0  9992
2 29517  28.4664 211.4603 4449301 295.0016  25.7030  6.69862654149813
Epoch (UTC): 28 September 2016 05:04:41
Eccentricity: 0.4449301
inclination: 28.4664°
perigee height: 220 km
apogee height: 10798 km
right ascension of ascending node: 211.4603°
argument of perigee: 295.0016°
revolutions per day: 6.69862654
mean anomaly at epoch: 25.7030°
orbit number at epoch: 14981

The dashed part of the orbit path shows where the satellite is in the earth's shadow,  

DLR